Location: Unspecified
(0.0000°N, 0.0000°E)
Time: 06:33:44
(UTC+00:00)

Hubble Space Telescope - Pass Details

Date: 29 May 2019
Orbit: 536 x 540 km, 28.5° (Epoch: 14 September)

Event Time Altitude Azimuth Distance (km) Brightness Sun altitude
Rises 19:04:01 0° 287° (WNW) 2,671 6.2 -15.4°
Reaches altitude 10° 19:06:23 10° 279° (W) 1,781 4.7 -16.0°
Maximum altitude 19:10:14 38° 210° (SSW) 823 1.7 -16.9°
Enters shadow 19:12:00 25° 160° (SSE) 1,097 2.0 -17.3°
